Theta_e
309 309 309 309 309 309 308 309 309 309 309 310 310 311 311 310 309 309 310 311 309 310 311 311 312 315 317 317 319 320 320 318 314 318 320 323 321 321 323 324 326 329 329
309 308 308 308 308 307 307 307 307 307 308 308 308 308 307 307 307 307 307 307 307 306 307 308 308 309 309 310 311 312 315 317 316 313 317 317 317 320 321 320 321 321 322
307 307 307 306 306 305 304 305 306 305 304 304 304 304 304 304 304 304 306 306 305 304 304 305 305 306 306 306 306 307 309 310 313 311 310 317 317 319 320 319 318 321 321
307 305 304 303 302 302 302 302 302 301 300 300 300 301 301 301 301 301 302 304 302 301 302 303 302 303 303 304 304 306 307 307 307 306 307 307 310 315 316 314 316 318 319
303 301 300 300 300 300 299 299 299 298 298 298 298 298 298 298 298 299 299 299 299 299 300 300 301 302 303 303 303 304 305 304 304 303 302 304 305 307 308 312 312 315 318
299 298 299 298 298 297 296 296 296 295 294 295 294 294 294 295 296 297 297 296 296 295 295 297 297 299 298 299 300 301 302 301 300 300 300 300 303 304 307 309 311 310 307
297 297 296 295 294 294 294 293 293 292 292 291 291 291 291 292 294 295 296 296 295 295 295 295 296 297 299 298 299 300 301 301 302 301 299 300 301 303 306 305 307 308 308
294 293 293 293 292 291 291 290 290 289 288 288 288 290 290 292 294 294 295 295 294 294 295 295 295 295 296 297 298 297 298 300 302 302 301 301 302 303 302 302 301 302 306
292 291 291 290 289 288 287 287 287 286 286 287 288 290 291 293 293 294 294 293 293 293 294 295 295 295 296 295 295 295 296 299 301 300 299 299 297 297 298 298 296 296 297
290 289 289 288 287 286 285 285 285 286 287 289 289 291 292 292 292 292 292 293 292 292 294 295 295 295 294 294 294 294 293 295 297 298 299 299 298 299 298 299 298 295 296
288 287 287 286 285 285 285 285 286 288 288 287 289 290 290 291 291 292 292 292 292 291 292 292 294 294 294 293 293 295 294 296 296 296 297 297 299 299 300 301 302 299 298
286 285 284 284 284 284 284 284 286 286 287 287 288 289 290 291 291 292 292 292 293 292 292 293 294 293 293 292 293 293 293 294 295 294 294 294 296 297 299 300 302 302 302
283 282 283 284 284 284 284 286 286 287 286 286 287 288 289 290 291 292 292 292 293 292 293 294 293 293 293 293 293 293 293 294 293 293 293 294 296 298 299 300 301 302 301
282 283 284 284 286 286 287 287 286 286 286 286 286 287 288 289 290 291 291 292 292 292 293 293 294 293 293 293 293 294 294 294 293 293 293 295 297 297 297 299 298 298 298
283 284 284 285 285 286 286 287 287 288 288 287 287 288 287 287 289 290 290 289 290 290 290 291 292 291 291 291 291 292 293 293 292 293 294 294 296 297 297 299 298 298 297
284 284 285 285 285 285 285 286 289 289 289 289 289 289 289 289 289 289 289 289 289 289 290 290 290 290 290 290 290 291 292 292 293 294 295 296 297 297 297 299 299 299 298
284 285 285 285 285 285 285 284 283 286 289 289 289 288 288 289 288 288 289 289 289 290 291 292 292 291 292 292 291 292 292 294 295 296 297 299 299 299 298 300 301 302 301
285 286 285 285 285 285 285 284 284 283 283 284 287 287 288 287 287 288 289 291 293 294 295 295 294 295 295 294 294 293 294 295 296 297 298 299 302 302 302 302 304 305 305
286 286 286 286 285 286 285 285 285 284 284 283 284 285 286 286 287 288 289 290 290 292 293 294 295 297 298 298 298 297 296 296 296 298 298 300 302 304 303 304 305 296 299
286 287 287 286 285 285 285 284 284 284 283 283 283 283 285 284 284 285 287 288 289 290 291 292 294 295 297 300 303 303 300 300 300 301 301 302 306 306 306 307 306 304 305
285 285 284 285 285 285 284 284 284 283 283 283 283 284 284 283 283 284 285 286 288 288 289 291 292 294 296 300 304 304 304 304 305 305 307 307 308 307 307 307 307 307 307
285 285 284 283 284 283 283 284 283 283 283 282 283 284 284 284 283 284 285 286 287 288 289 290 291 293 296 299 300 300 300 301 309 310 309 309 309 310 309 309 309 308 304
285 284 283 283 283 282 282 282 282 282 282 282 283 283 283 283 283 283 284 285 286 287 288 290 291 293 295 297 300 297 296 294 297 309 310 311 311 310 310 310 308 306 304
284 283 282 282 281 281 282 281 282 281 281 282 282 282 282 282 283 283 284 285 285 286 288 289 291 292 294 295 298 295 294 290 296 311 314 313 311 309 312 310 308 305 302
282 282 281 280 280 280 280 281 281 281 281 281 281 282 282 282 282 283 283 284 285 286 287 288 290 291 292 293 294 291 289 287 291 290 315 314 313 313 310 308 306 304 301
281 281 280 280 279 279 279 279 280 280 280 281 281 281 281 281 282 282 282 283 284 285 286 287 289 290 291 292 290 287 287 287 288 288 302 315 314 314 311 308 306 304 302
Wind_Speed
5 5 6 5 4 4 3 2 3 4 5 5 5 5 5 5 6 5 5 5 6 5 5 6 7 5 4 4 3 3 4 5 7 8 4 3 5 7 8 7 7 7 7
4 5 6 5 3 3 4 4 4 4 4 4 5 5 5 6 5 6 6 5 5 6 7 6 7 5 6 5 4 5 4 4 5 11 7 3 5 5 7 7 6 7 7
4 5 4 4 5 5 4 4 5 5 5 6 6 7 8 8 8 8 8 8 7 7 9 9 9 8 8 6 6 7 6 6 5 6 6 4 5 5 8 7 7 7 7
3 6 6 6 6 6 6 6 6 5 5 6 7 8 9 10 11 11 11 8 8 11 11 10 10 10 10 10 10 9 8 7 7 7 7 8 7 7 6 8 8 5 7
6 9 8 6 6 5 6 5 5 5 7 7 9 10 10 11 10 11 9 10 11 12 11 11 11 13 20 17 10 10 9 9 9 10 10 9 9 9 10 7 8 7 8
9 8 7 7 7 6 6 7 6 7 8 9 10 11 12 10 14 17 14 9 11 11 12 12 12 16 15 19 20 21 17 13 14 11 11 12 13 9 8 8 8 8 11
8 7 7 7 7 6 7 8 8 9 10 11 11 11 12 11 15 15 15 9 9 10 11 11 11 10 13 12 14 17 17 20 20 14 13 12 13 11 8 9 10 11 12
7 8 9 9 9 9 9 9 9 8 10 10 11 12 11 10 13 13 15 10 9 10 12 12 12 12 11 11 10 11 12 13 9 7 9 11 10 9 6 5 4 8 8
9 8 9 9 10 11 11 10 9 9 10 10 10 12 12 10 13 12 11 8 9 11 11 11 11 11 13 13 11 12 11 10 9 13 14 13 10 11 10 6 7 5 6
9 10 10 10 10 11 11 11 9 10 11 10 11 10 12 10 12 13 12 7 9 8 10 11 14 13 15 15 11 10 10 11 9 8 7 10 12 13 13 11 9 7 6
10 10 11 10 11 10 10 9 10 10 10 10 10 10 10 10 10 13 12 8 7 7 8 8 8 14 14 15 15 10 11 10 12 8 8 8 9 11 9 9 10 9 9
10 11 11 11 9 9 10 10 10 9 10 10 11 9 7 7 10 11 13 13 14 9 10 9 10 16 16 16 14 15 14 14 8 8 8 9 9 9 10 10 12 11 10
11 11 10 11 10 9 9 9 7 8 7 8 8 9 9 9 9 15 14 14 16 12 9 13 21 21 22 17 18 18 14 7 7 8 9 9 9 9 10 10 10 12 12
11 10 8 9 9 8 6 6 7 7 7 7 7 8 9 9 9 9 9 10 15 12 13 10 13 15 18 15 13 10 7 8 9 9 9 9 9 8 8 8 7 7 8
9 8 8 7 8 8 7 6 7 7 7 8 8 7 9 11 10 17 16 12 12 13 15 7 7 6 6 6 6 8 7 7 8 8 9 9 9 8 8 7 8 8 9
8 7 7 6 7 7 7 6 7 9 13 13 13 10 8 13 18 22 23 22 21 18 4 6 7 7 7 7 7 7 7 9 8 8 8 9 9 7 8 8 8 9 9
8 8 7 8 7 7 8 8 9 9 13 12 12 13 14 16 20 22 20 20 18 10 4 8 8 8 8 8 7 7 8 7 8 8 8 8 7 7 8 8 8 8 8
8 13 7 7 7 7 7 8 8 10 11 11 12 14 13 18 21 18 18 16 9 6 7 9 10 9 9 8 8 8 8 8 7 7 8 8 7 6 6 4 4 3 6
7 7 7 7 6 9 7 7 7 8 8 9 10 11 14 21 17 14 13 7 9 9 10 11 11 11 10 9 8 8 9 8 7 7 7 7 7 6 6 5 3 2 2
7 13 10 6 7 8 8 8 8 9 9 8 9 10 11 13 11 11 9 9 9 9 10 11 12 11 12 12 10 8 7 7 7 6 6 6 5 5 6 6 5 4 2
6 7 9 7 8 9 9 9 9 9 9 9 9 9 14 9 9 9 9 9 9 10 11 11 12 12 12 13 11 11 8 6 6 6 5 2 3 4 5 5 4 4 4
6 6 7 8 8 9 9 9 9 10 10 10 10 10 15 8 8 9 9 10 10 10 9 10 11 10 11 12 13 13 11 10 6 5 4 3 1 3 6 6 6 6 7
7 8 8 8 8 10 9 9 9 10 10 10 10 10 11 9 10 10 11 11 11 11 10 10 11 11 12 13 10 11 11 11 8 7 4 1 2 3 5 7 7 7 7
7 8 8 8 8 9 9 10 9 12 11 10 10 11 10 10 10 12 11 11 11 11 11 11 11 14 15 15 12 12 10 12 8 5 3 3 3 6 6 6 7 10 9
7 8 8 9 9 9 10 10 10 11 11 10 10 11 11 11 11 12 12 11 11 12 13 14 11 16 18 22 20 25 21 21 13 12 3 3 5 9 9 7 9 10 10
7 8 8 7 8 9 9 9 10 11 11 11 11 11 11 11 12 12 12 14 12 12 16 12 15 21 20 15 21 24 23 24 18 17 9 3 6 7 7 9 11 8 10
Wind_Direction
159 129 121 123 125 120 96 62 21 3 359 11 4 357 6 4 355 345 334 333 341 333 331 320 307 307 302 308 300 270 249 219 255 278 270 266 258 252 263 234 231 238 240
137 123 117 124 119 84 57 29 14 18 18 24 16 360 351 347 341 331 316 322 329 325 319 318 307 314 307 306 304 292 271 246 244 271 274 254 251 271 265 284 261 251 247
120 116 113 75 53 42 37 44 46 33 18 9 1 342 331 322 311 302 283 277 281 288 291 278 278 280 279 280 276 272 260 253 233 253 270 267 258 271 278 274 265 260 249
99 63 50 38 39 43 43 36 27 7 357 344 327 310 307 302 296 295 289 278 283 292 284 277 280 278 278 280 275 269 262 252 250 258 260 261 259 253 253 269 271 252 260
65 59 53 55 53 46 33 11 350 343 331 316 306 301 295 291 294 302 307 303 296 294 290 288 285 283 283 280 279 274 264 260 259 265 266 261 253 251 248 255 263 270 265
63 58 44 34 30 16 0 338 321 315 311 309 299 296 295 296 306 302 301 292 287 287 290 289 285 286 284 283 282 279 272 270 263 260 263 257 257 255 256 250 251 251 265
53 46 30 16 1 345 327 316 311 314 311 308 303 301 292 292 289 286 289 287 285 284 282 282 284 281 286 284 282 281 277 267 256 261 261 254 259 257 257 256 256 252 254
35 20 6 353 338 327 317 311 310 309 304 298 296 292 287 286 296 301 295 293 286 283 286 279 273 275 272 273 277 280 274 271 252 252 253 261 263 268 252 265 290 292 289
11 354 341 331 322 321 316 313 309 305 304 300 297 294 294 300 294 293 306 301 293 289 288 286 280 279 280 274 277 278 281 272 256 252 248 257 256 256 252 276 259 257 270
346 333 328 324 319 314 309 309 312 306 300 305 297 289 296 302 299 295 297 297 299 295 292 289 283 272 274 274 275 275 275 274 274 271 251 247 257 263 254 246 257 250 245
326 324 322 321 314 303 306 309 305 302 298 296 297 297 286 287 291 287 294 307 301 297 292 288 282 279 273 266 266 270 268 278 280 268 262 256 247 251 251 238 228 226 239
331 325 320 314 312 310 302 297 294 298 305 309 311 309 302 293 296 315 315 305 301 298 292 285 280 277 277 275 273 270 264 264 260 253 254 250 246 246 246 241 239 234 231
324 320 318 318 308 289 283 302 311 311 309 309 311 312 322 328 326 323 314 315 309 301 289 285 283 281 279 278 267 257 258 260 253 248 249 248 246 250 252 245 234 240 244
328 318 314 314 307 305 314 312 315 316 312 309 310 315 320 319 324 330 325 317 309 305 300 296 289 284 279 278 282 273 258 257 253 253 254 255 254 248 239 234 226 223 235
320 314 312 308 320 324 325 317 310 301 299 307 310 309 314 315 323 319 315 314 308 301 310 293 293 294 287 282 274 267 261 259 255 253 253 254 250 237 235 228 224 225 231
319 323 326 331 330 327 326 321 308 307 314 313 310 314 313 304 310 316 314 307 304 300 291 292 292 286 280 277 272 269 256 255 250 249 247 248 247 234 235 227 220 218 226
334 333 334 343 343 343 344 341 339 340 334 330 328 325 318 317 322 320 315 316 303 301 280 304 298 292 287 279 267 263 265 250 245 245 250 263 233 234 233 235 223 212 219
346 352 351 350 348 347 346 346 341 342 339 337 338 336 339 334 328 324 327 325 325 334 318 311 306 301 293 282 276 265 263 263 255 253 248 253 256 241 251 262 261 205 168
346 347 349 350 348 352 346 345 341 338 336 331 330 341 343 342 334 334 334 345 328 329 330 325 322 320 314 295 278 268 263 264 260 256 254 255 250 228 212 218 166 111 40
348 349 355 348 350 357 356 356 353 348 342 340 341 342 341 341 347 344 343 336 334 330 328 327 327 325 324 325 314 295 269 269 271 265 245 237 244 188 196 189 168 147 175
350 354 356 1 7 1 357 356 350 347 346 343 341 341 340 333 332 333 332 334 331 329 325 325 324 324 324 329 342 336 326 289 274 274 280 277 211 179 179 170 158 151 136
353 2 5 9 4 3 357 356 353 349 348 345 343 344 348 347 340 337 335 331 330 324 318 317 317 323 326 332 342 339 341 333 310 312 312 299 327 21 115 160 143 134 128
3 10 12 10 8 3 3 358 355 351 347 348 346 347 350 350 345 341 338 334 331 328 325 322 323 326 332 335 348 348 340 334 310 308 298 87 93 105 110 119 124 122 122
6 12 15 11 12 8 5 358 356 355 349 349 350 350 348 347 344 340 342 337 333 332 326 325 326 331 332 338 343 351 350 341 315 293 329 121 107 122 120 105 111 116 106
13 14 19 17 10 5 0 360 357 353 350 352 349 348 347 348 348 343 341 343 339 335 334 331 330 335 339 338 348 346 347 349 359 343 10 89 120 129 123 124 129 121 125
17 20 19 13 12 8 3 356 354 352 352 351 350 348 347 348 347 346 343 343 342 341 338 334 334 337 342 345 348 341 347 349 354 353 350 65 104 114 122 131 133 130 138